This is the latest recevied weather packets stored in our database for station/object N0NAI-13. If no packets are shown the sender has not sent any weather packets the latest 10 day(s).
| Time | Temp. | Humidity | Pressure | Rain* | Wind** | Luminosity | Snow |
|---|---|---|---|---|---|---|---|
| 1778073319 | 3.33° C | 67% | 1018.4 hPa | 0 mm | - | - | - |
| 1778072716 | 2.78° C | 73% | 1018.4 hPa | 0 mm | - | - | - |
| 1778072131 | 1.67° C | 73% | 1017.9 hPa | 0 mm | - | - | - |
| 1778071515 | 1.67° C | 75% | 1017.8 hPa | 0 mm | - | - | - |
| 1778070918 | 0.56° C | 81% | 1017.8 hPa | 0 mm | - | - | - |
| 1778070320 | -0.56° C | 86% | 1017.9 hPa | 0 mm | - | - | - |
| 1778069723 | -1.67° C | 87% | 1017.7 hPa | 0 mm | - | - | - |
| 1778069127 | -2.22° C | 87% | 1017.4 hPa | 0 mm | - | - | - |
| 1778068529 | -1.67° C | 86% | 1017.4 hPa | 0 mm | - | - | - |
| 1778067932 | -2.22° C | 87% | 1017.3 hPa | 0 mm | - | - | - |
| 1778067317 | -2.22° C | 87% | 1017.2 hPa | 0 mm | - | - | - |
| 1778066720 | -2.22° C | 87% | 1017.2 hPa | 0 mm | - | - | - |
| 1778066123 | -2.22° C | 87% | 1017.2 hPa | 0 mm | - | - | - |
| 1778065526 | -2.22° C | 87% | 1017.1 hPa | 0 mm | - | - | - |
| 1778064929 | -2.22° C | 86% | 1017.1 hPa | 0 mm | - | - | - |
| 1778064332 | -2.22° C | 85% | 1016.9 hPa | 0 mm | - | - | - |
| 1778063717 | -1.67° C | 85% | 1016.7 hPa | 0 mm | - | - | - |
| 1778063120 | -1.67° C | 84% | 1016.6 hPa | 0 mm | - | - | - |
| 1778062523 | -1.67° C | 83% | 1016.5 hPa | 0 mm | - | - | - |
| 1778061920 | -1.11° C | 83% | 1016.6 hPa | 0 mm | - | - | - |
| 1778061317 | -1.67° C | 83% | 1016.7 hPa | 0 mm | - | - | - |
| 1778060732 | -1.11° C | 83% | 1016.6 hPa | 0 mm | - | - | - |
| 1778060117 | -1.11° C | 83% | 1016.5 hPa | 0 mm | - | - | - |
| 1778059520 | -1.11° C | 82% | 1016.4 hPa | 0 mm | - | - | - |
| 1778058923 | -1.11° C | 82% | 1016.2 hPa | 0 mm | - | - | - |
* Rain latest hour (hover to see other rain measurements)
** Current wind speed in m/s (hover to see current wind gust speed)